CAPE
9 23 1 1 7 0 0 0 0 9 29 22 3 5 9 11 14 21 10 9 1 4 0 0 0 0 0 0 0 0 0 0 0 0 0 0 0 0 0 0 0 0 0 0 0 0 0
5 6 13 14 19 12 0 0 0 4 15 32 10 2 6 20 13 10 13 8 2 3 0 0 0 0 0 0 0 0 0 0 0 0 0 0 0 0 0 0 0 0 0 0 0 0 0
10 18 14 2 19 30 5 0 0 14 26 25 16 1 3 4 12 11 11 19 1 5 0 0 0 0 0 0 0 0 0 0 0 0 0 0 0 0 0 0 0 0 0 0 0 0 0
9 19 19 17 1 7 27 24 1 11 28 19 17 13 18 15 24 23 19 12 3 0 0 0 0 0 0 0 0 0 0 0 0 0 0 0 0 0 0 0 0 0 0 0 0 0 0
10 11 19 23 17 3 11 34 36 5 5 9 5 6 19 13 26 20 24 11 0 0 0 0 0 0 0 0 0 0 0 0 0 0 0 0 0 0 0 0 0 0 0 0 0 0 0
13 14 17 15 27 14 13 17 32 32 10 5 3 16 4 29 36 26 20 0 0 0 0 0 0 0 0 0 0 0 0 0 0 0 0 0 0 0 0 0 0 0 0 0 0 0 0
15 13 20 18 23 26 14 20 24 49 46 16 0 9 0 27 35 32 1 0 0 0 0 0 0 0 0 0 0 0 0 0 0 0 0 0 0 0 0 0 0 0 0 0 0 0 0
15 16 11 23 36 27 30 30 17 38 66 45 11 9 0 22 28 33 0 0 0 0 0 0 0 0 0 0 0 0 0 0 0 0 0 0 0 0 0 0 0 0 0 0 0 0 0
18 18 17 26 21 37 49 57 40 33 67 53 31 22 2 13 49 14 0 0 0 0 0 0 0 0 0 0 0 0 0 0 0 0 0 0 0 0 0 0 0 0 0 0 0 0 0
11 30 30 31 27 49 61 68 56 57 80 56 44 32 20 33 3 0 0 0 0 0 0 0 0 0 0 0 0 0 0 0 0 0 0 0 0 0 0 0 0 0 0 0 0 0 0
19 30 34 36 33 29 42 58 71 69 74 65 51 32 48 18 0 0 0 0 0 0 0 0 0 0 0 0 0 0 0 0 0 0 0 0 0 0 0 0 0 0 0 0 0 0 0
53 49 24 28 34 27 26 36 63 73 70 73 62 37 48 39 4 0 0 0 0 0 0 0 0 0 0 0 0 0 0 0 0 0 0 0 0 0 0 0 0 0 0 0 0 0 0
4 8 52 28 26 29 36 44 61 67 85 77 82 62 59 0 0 0 0 0 0 0 0 0 0 0 0 0 0 0 0 0 0 0 0 0 0 0 0 0 0 0 0 0 0 0 0
14 5 13 19 74 51 40 42 74 74 61 67 84 74 72 0 0 0 0 0 0 0 0 0 0 0 0 0 0 0 0 0 0 0 0 0 0 0 0 0 0 0 0 0 0 0 0
9 1 8 4 4 75 98 58 86 73 68 58 87 32 20 0 0 0 0 0 0 0 0 0 0 0 0 0 0 0 0 0 0 0 0 0 0 0 0 0 0 0 0 0 0 0 0
23 15 1 8 11 51 78 115 132 79 75 66 11 3 3 0 0 0 0 0 0 0 0 0 0 0 0 0 0 0 0 0 0 0 0 0 0 0 0 0 0 0 0 0 0 0 0
43 41 8 6 23 18 82 127 125 130 100 75 1 2 0 0 0 0 0 0 0 0 0 0 0 0 0 0 0 0 0 0 0 0 0 0 0 0 0 0 0 0 0 0 0 0 0
60 49 48 43 14 15 26 38 97 145 141 14 0 1 0 0 0 0 0 0 0 0 0 0 0 0 0 0 0 0 0 0 0 0 0 0 0 0 0 0 0 0 0 0 0 0 0
67 62 49 53 32 29 28 10 90 133 162 0 1 0 0 0 0 0 0 0 0 0 0 0 0 0 0 0 0 0 0 0 0 0 0 0 0 0 0 0 0 0 0 0 0 0 0
92 81 56 55 51 27 35 9 32 97 206 11 0 1 1 0 0 0 0 0 0 0 0 0 0 0 0 0 0 0 0 0 0 0 0 0 0 0 0 0 0 0 0 0 0 0 0
89 109 92 67 57 55 51 50 24 92 138 17 0 0 0 0 0 0 0 0 0 0 0 0 0 0 0 0 0 0 0 0 0 0 0 0 0 0 0 0 0 0 0 0 0 0 0
103 114 137 102 75 58 81 57 14 69 98 11 0 0 0 0 0 0 0 0 0 0 0 0 0 0 0 0 0 0 0 0 0 0 0 0 0 0 0 0 0 0 0 0 0 0 0
122 124 168 138 85 69 44 74 49 4 79 1 0 0 0 0 0 0 0 0 0 0 0 0 0 0 0 0 0 0 0 0 0 0 0 0 0 0 0 0 0 0 0 0 0 0 0
133 160 195 140 108 92 64 58 43 41 61 1 0 0 0 0 0 0 0 0 0 0 0 0 0 0 0 0 0 0 0 0 0 0 0 0 0 0 0 0 0 0 0 0 0 0 0
167 193 188 157 89 71 78 83 63 16 11 29 0 0 0 0 0 0 0 0 0 0 0 0 0 0 0 0 0 0 0 0 0 0 0 0 0 0 0 0 0 0 0 0 0 0 0
193 225 192 163 113 38 81 39 52 51 30 45 12 0 0 0 0 0 0 0 0 0 0 0 0 0 0 0 0 0 0 0 0 0 0 0 0 0 0 0 0 0 0 0 0 0 0
207 156 161 225 168 109 82 10 42 62 21 38 24 0 0 0 0 0 0 0 0 0 0 0 0 0 0 0 0 0 0 0 0 0 1 0 0 0 0 0 0 0 0 0 0 0 0
114 166 90 116 107 126 61 43 63 54 22 35 1 1 0 0 0 0 0 0 0 0 0 0 0 0 0 0 0 0 0 0 0 0 0 0 0 0 0 0 0 0 0 0 0 0 0
83 75 140 92 86 103 90 64 72 67 13 0 0 1 0 0 0 1 2 1 0 0 0 0 0 0 0 0 0 0 0 0 0 0 0 0 0 0 0 0 0 0 0 0 0 0 0
CIN
-0 -0 -0 -0 -0 -0 -0 -0 -0 -4 -3 -3 -14 -24 -9 -8 -15 -7 -5 -2 -0 -0 -0 -0 -0 -0 -0 -0 -0 -0 -0 -0 -0 -0 -0 -0 -0 -0 -0 -0 -0 -0 -0 -0 -0 -0 -0
-0 -0 -0 -0 -0 -0 -0 -0 -0 -8 -4 -3 -6 -17 -14 -9 -13 -9 -8 -3 -0 -0 -0 -0 -0 -0 -0 -0 -0 -0 -0 -0 -0 -0 -0 -0 -0 -0 -0 -0 -0 -0 -0 -0 -0 -0 -0
-0 -0 -0 -2 -0 -0 -0 -0 -0 -4 -6 -8 -9 -10 -7 -6 -9 -2 -1 -4 -0 -0 -0 -0 -0 -0 -0 -0 -0 -0 -0 -0 -0 -0 -0 -0 -0 -0 -0 -0 -0 -0 -0 -0 -0 -0 -0
-0 -0 -0 -0 -0 -0 -0 -0 -0 -4 -5 -9 -9 -8 -4 -7 -5 -3 -2 -4 -3 -0 -0 -0 -0 -0 -0 -0 -0 -0 -0 -0 -0 -0 -0 -0 -0 -0 -0 -0 -0 -0 -0 -0 -0 -0 -0
-0 -0 -0 -0 -0 -0 -0 -0 -0 -2 -9 -17 -16 -10 -1 -6 -3 -6 -5 -3 -2 -0 -0 -0 -0 -0 -0 -0 -0 -0 -0 -0 -0 -0 -0 -0 -0 -0 -0 -0 -0 -0 -0 -0 -0 -0 -0
-0 -0 -0 -0 -0 -0 -0 -0 -0 -0 -0 -8 -14 -5 -3 -7 -2 -7 -4 -0 -0 -0 -0 -0 -0 -0 -0 -0 -0 -0 -0 -0 -0 -0 -0 -0 -0 -0 -0 -0 -0 -0 -0 -0 -0 -0 -0
-0 -0 -0 -0 -0 -0 -0 -0 -0 -0 -0 -0 -0 -16 -0 -3 -4 -9 -3 -0 -0 -0 -0 -0 -0 -0 -0 -0 -0 -0 -0 -0 -0 -0 -0 -0 -0 -0 -0 -0 -0 -0 -0 -0 -0 -0 -0
-0 -0 -0 -0 -0 -0 -0 -2 -0 -2 -0 -0 -2 -21 -0 -5 -4 -5 -0 -0 -0 -0 -0 -0 -0 -0 -0 -0 -0 -0 -0 -0 -0 -0 -0 -0 -0 -0 -0 -0 -0 -0 -0 -0 -0 -0 -0
-0 -0 -0 -0 -0 -0 -0 -0 -0 -1 -0 -0 -2 -12 -10 -5 -3 -7 -0 -0 -0 -0 -0 -0 -0 -0 -0 -0 -0 -0 -0 -0 -0 -0 -0 -0 -0 -0 -0 -0 -0 -0 -0 -0 -0 -0 -0
-0 -0 -0 -0 -0 -0 -0 -0 -0 -1 -1 -1 -1 -10 -12 -1 -0 -0 -0 -0 -0 -0 -0 -0 -0 -0 -0 -0 -0 -0 -0 -0 -0 -0 -0 -0 -0 -0 -0 -0 -0 -0 -0 -0 -0 -0 -0
-24 -0 -0 -0 -0 -0 -0 -1 -0 -0 -2 -2 -2 -8 -11 -4 -0 -0 -0 -0 -0 -0 -0 -0 -0 -0 -0 -0 -0 -0 -0 -0 -0 -0 -0 -0 -0 -0 -0 -0 -0 -0 -0 -0 -0 -0 -0
-0 -8 -0 -0 -0 -0 -0 -0 -0 -0 -5 -2 -3 -4 -3 -6 -10 -0 -0 -0 -0 -0 -0 -0 -0 -0 -0 -0 -0 -0 -0 -0 -0 -0 -0 -0 -0 -0 -0 -0 -0 -0 -0 -0 -0 -0 -0
-0 -2 -6 -0 -0 -0 -0 -0 -0 -0 -1 -1 -1 -1 -0 -0 -0 -0 -0 -0 -0 -0 -0 -0 -0 -0 -0 -0 -0 -0 -0 -0 -0 -0 -0 -0 -0 -0 -0 -0 -0 -0 -0 -0 -0 -0 -0
-0 -0 -6 -0 -0 -2 -0 -0 -0 -0 -0 -1 -0 -2 -0 -0 -0 -0 -0 -0 -0 -0 -0 -0 -0 -0 -0 -0 -0 -0 -0 -0 -0 -0 -0 -0 -0 -0 -0 -0 -0 -0 -0 -0 -0 -0 -0
-0 -0 -0 -0 -0 -0 -0 -0 -0 -0 -0 -1 -0 -2 -0 -0 -0 -0 -0 -0 -0 -0 -0 -0 -0 -0 -0 -0 -0 -0 -0 -0 -0 -0 -0 -0 -0 -0 -0 -0 -0 -0 -0 -0 -0 -0 -0
-0 -0 -0 -0 -0 -0 -0 -0 -0 -0 -1 -1 -1 -1 -1 -0 -0 -0 -0 -0 -0 -0 -0 -0 -0 -0 -0 -0 -0 -0 -0 -0 -0 -0 -0 -0 -0 -0 -0 -0 -0 -0 -0 -0 -0 -0 -0
-1 -0 -0 -0 -0 -0 -0 -0 -0 -0 -2 -0 -4 -1 -0 -0 -0 -0 -0 -0 -0 -0 -0 -0 -0 -0 -0 -0 -0 -0 -0 -0 -0 -0 -0 -0 -0 -0 -0 -0 -0 -0 -0 -0 -0 -0 -0
-0 -0 -0 -0 -0 -2 -0 -0 -1 -1 -0 -12 -2 -0 -0 -0 -0 -0 -0 -0 -0 -0 -0 -0 -0 -0 -0 -0 -0 -0 -0 -0 -0 -0 -0 -0 -0 -0 -0 -0 -0 -0 -0 -0 -0 -0 -0
-0 -0 -0 -0 -0 -0 -0 -0 -0 -1 -0 -2 -2 -0 -0 -0 -0 -0 -0 -0 -0 -0 -0 -0 -0 -0 -0 -0 -0 -0 -0 -0 -0 -0 -0 -0 -0 -0 -0 -0 -0 -0 -0 -0 -0 -0 -0
-0 -0 -0 -0 -0 -0 -0 -2 -0 -1 -0 -20 -0 -0 -0 -0 -0 -0 -0 -0 -0 -0 -0 -0 -0 -0 -0 -0 -0 -0 -0 -0 -0 -0 -0 -0 -0 -0 -0 -0 -0 -0 -0 -0 -0 -0 -0
-0 -0 -0 -0 -0 -0 -0 -0 -6 -0 -0 -17 -0 -0 -0 -0 -0 -0 -0 -0 -0 -0 -0 -0 -0 -0 -0 -0 -0 -0 -0 -0 -0 -0 -0 -0 -0 -0 -0 -0 -0 -0 -0 -0 -0 -0 -0
-0 -0 -0 -0 -0 -0 -0 -0 -12 -0 -0 -13 -0 -0 -0 -0 -0 -0 -0 -0 -0 -0 -0 -0 -0 -0 -0 -0 -0 -0 -0 -0 -0 -0 -0 -0 -0 -0 -0 -0 -0 -0 -0 -0 -0 -0 -0
-0 -0 -0 -0 -0 -0 -0 -0 -0 -0 -0 -3 -0 -0 -0 -0 -0 -0 -0 -0 -0 -0 -0 -0 -0 -0 -0 -0 -0 -0 -0 -0 -0 -0 -0 -0 -0 -0 -0 -0 -0 -0 -0 -0 -0 -0 -0
-0 -0 -0 -0 -0 -0 -0 -4 -0 -0 -0 -6 -0 -0 -0 -0 -0 -0 -0 -0 -0 -0 -0 -0 -0 -0 -0 -0 -0 -0 -0 -0 -0 -0 -0 -0 -0 -0 -0 -0 -0 -0 -0 -0 -0 -0 -0
-0 -0 -0 -0 -0 -0 -0 -1 -30 -0 -0 -0 -0 -0 -0 -0 -0 -0 -0 -0 -0 -0 -0 -0 -0 -0 -0 -0 -0 -0 -0 -0 -0 -0 -0 -0 -0 -0 -0 -0 -0 -0 -0 -0 -0 -0 -0
-0 -0 -0 -0 -0 -0 -0 -0 -0 -0 -0 -0 -5 -0 -0 -0 -0 -0 -0 -0 -16 -0 -0 -0 -0 -0 -0 -0 -0 -0 -0 -0 -0 -0 -0 -0 -0 -0 -0 -0 -0 -0 -0 -0 -0 -0 -0
-0 -0 -0 -0 -0 -1 -0 -3 -3 -7 -16 -0 -1 -3 -0 -0 -0 -0 -0 -0 -0 -0 -0 -0 -0 -0 -0 -0 -0 -0 -0 -0 -0 -0 -0 -0 -0 -0 -0 -1 -0 -0 -0 -0 -0 -0 -0
-1 -0 -0 -0 -0 -1 -0 -9 -1 -0 -0 -2 -0 -0 -2 -0 -0 -0 -0 -0 -1 -0 -0 -0 -0 -0 -0 -0 -0 -0 -0 -0 -0 -0 -0 -0 -0 -0 -0 -0 -0 -0 -0 -0 -0 -0 -0
-0 -21 -0 -6 -10 -7 -9 -6 -1 -9 -0 -0 -0 -0 -0 -0 -0 -0 -0 -0 -0 -0 -1 -0 -0 -0 -0 -0 -0 -0 -0 -0 -0 -0 -0 -0 -0 -0 -0 -0 -0 -0 -0 -0 -0 -0 -0
Wind_Speed
3 7 7 6 7 8 6 4 4 4 4 4 3 3 5 7 4 3 2 4 4 4 4 7 10 12 7 1 3 4 8 7 5 2 1 1 1 2 6 6 4 5 3 4 0 5 6
4 4 6 7 8 8 8 5 5 7 6 6 4 2 2 6 4 3 1 2 5 4 5 6 8 12 1 3 1 5 5 3 4 4 2 5 1 3 7 4 4 5 7 5 4 4 4
10 8 7 6 5 9 10 8 6 7 8 7 6 4 6 4 5 4 5 5 4 5 6 7 6 3 2 5 3 5 3 1 3 1 1 2 4 5 4 6 6 8 7 4 1 1 1
12 12 12 11 9 8 9 10 10 10 9 6 5 5 6 5 4 3 5 3 1 4 8 7 6 2 4 0 3 4 7 1 3 3 2 2 5 8 5 5 5 3 5 4 2 5 1
14 14 14 14 13 12 10 11 12 13 12 10 6 4 6 5 4 3 4 6 1 8 8 8 3 3 5 0 2 2 4 1 1 2 2 2 6 5 3 7 6 2 3 4 2 8 4
15 14 16 15 15 13 13 12 12 15 14 12 10 8 6 5 6 4 8 3 4 6 6 6 4 2 1 2 2 2 3 3 1 2 3 3 6 5 5 5 7 8 5 4 6 8 5
17 17 16 17 16 15 14 14 12 15 14 13 12 11 8 6 6 7 4 2 3 1 3 5 1 2 3 2 1 2 1 2 1 1 4 2 6 8 13 7 2 6 4 5 1 4 4
19 18 19 17 18 17 17 15 13 11 14 14 13 12 10 8 6 8 5 3 3 2 3 4 1 2 2 1 3 1 2 3 4 4 5 7 4 5 6 5 1 0 5 2 1 2 3
20 20 20 19 19 19 17 18 14 14 15 15 14 13 12 10 8 4 3 6 1 2 1 3 5 4 4 3 1 6 2 2 3 5 5 7 2 1 4 4 6 1 4 6 3 3 1
23 21 21 20 19 18 17 18 17 15 14 16 16 14 13 10 6 4 5 6 2 3 3 5 5 4 4 3 2 1 1 1 2 9 8 2 2 3 3 3 5 4 1 6 8 5 4
23 24 23 21 20 20 18 16 19 17 15 16 18 17 15 12 5 6 6 7 5 5 1 3 5 1 3 5 5 2 1 1 5 3 6 7 4 4 3 4 1 4 1 5 3 4 5
21 25 25 24 23 22 21 20 22 21 18 18 18 18 17 9 2 5 7 7 5 5 10 5 4 5 7 3 3 3 2 1 3 4 7 3 2 3 3 3 3 6 7 9 6 4 3
21 24 26 26 25 24 22 21 21 21 20 20 19 18 14 6 4 6 7 5 5 5 1 6 6 5 3 6 5 4 6 5 8 7 4 2 2 2 2 7 7 7 7 4 5 3 9
19 18 14 22 28 25 23 22 22 23 22 21 20 19 14 6 3 5 5 5 5 8 7 4 6 7 5 5 3 7 8 3 6 3 5 8 4 6 1 3 7 6 6 9 10 6 5
15 17 20 22 25 27 26 24 24 23 23 22 19 7 6 5 6 4 5 4 9 8 7 11 5 5 4 4 5 5 8 7 9 10 8 6 2 1 3 2 1 6 3 3 7 2 4
19 16 16 20 22 19 29 28 25 25 25 24 7 6 6 10 8 5 4 13 6 5 8 4 9 8 10 9 6 8 10 7 7 11 3 7 6 2 0 0 2 5 2 4 3 3 5
22 19 16 14 23 25 28 30 30 27 27 26 6 5 8 12 5 4 11 8 6 4 6 8 8 7 7 10 9 7 7 4 7 6 7 5 6 1 2 7 9 2 2 2 3 5 7
22 21 21 15 16 21 20 25 33 30 31 22 6 7 9 12 8 5 13 8 2 5 2 2 1 3 8 12 8 8 12 5 8 9 11 4 7 5 6 3 2 2 5 5 6 7 3
20 22 21 20 16 17 16 28 35 35 36 10 9 3 2 4 11 8 5 14 4 5 6 7 6 4 2 8 5 7 7 3 5 8 13 10 2 4 5 4 3 5 6 4 4 3 8
20 20 21 22 16 17 17 20 23 37 37 11 5 7 4 3 5 14 14 7 19 4 4 5 3 4 4 4 1 7 3 2 1 2 2 6 5 9 11 8 8 7 8 10 6 4 5
20 19 20 21 22 17 20 17 25 34 40 11 5 6 8 12 16 6 13 10 16 11 6 8 4 6 8 4 3 4 3 3 5 3 3 5 6 4 0 5 6 7 7 15 17 15 11
21 19 21 19 22 20 19 23 22 21 42 10 7 8 1 1 17 17 13 13 19 18 11 6 5 9 5 6 5 6 6 3 5 1 2 3 1 3 1 2 2 3 7 13 16 6 10
18 19 20 20 20 22 18 21 23 20 34 6 3 4 10 11 13 16 19 8 16 10 6 3 12 7 2 13 3 4 4 2 5 8 7 6 6 3 4 0 3 8 11 11 6 6 12
17 17 20 20 19 21 19 20 22 21 29 4 5 6 5 7 13 19 15 14 9 16 7 5 5 9 7 14 9 5 5 4 5 4 5 6 6 3 3 2 4 8 2 14 19 9 16
16 17 17 16 17 21 17 17 20 15 13 4 6 9 6 8 12 13 17 23 13 7 11 9 6 6 14 9 4 4 2 3 6 7 7 5 5 3 6 4 9 11 5 8 9 12 16
19 18 17 16 15 17 16 12 18 23 17 9 7 6 5 10 17 13 14 6 14 11 2 3 5 12 7 4 5 8 8 6 8 4 10 3 3 5 4 6 11 7 10 6 5 21 5
18 14 13 13 15 13 16 10 14 15 12 6 2 8 5 4 2 16 12 16 8 7 4 4 6 2 3 2 3 4 5 7 7 10 8 7 4 15 10 8 9 7 6 6 8 7 1
29 16 10 12 11 8 13 12 13 11 12 7 3 3 10 5 3 8 16 10 8 12 11 10 3 1 3 5 5 5 4 6 3 8 10 10 10 8 8 9 19 6 1 15 2 4 3
20 23 23 12 9 9 8 8 5 16 17 8 4 3 4 7 4 8 12 10 5 4 9 12 8 6 7 5 6 3 3 2 11 10 4 10 9 9 11 8 5 8 7 7 9 7 7
Wind_Direction
220 208 197 218 214 196 209 228 238 242 193 163 143 132 154 157 151 153 210 173 263 305 322 324 324 328 342 264 240 337 344 323 307 292 291 356 150 138 127 131 100 93 133 61 336 38 61
243 202 204 224 217 216 206 218 245 216 215 190 180 171 160 163 163 123 36 223 266 303 318 318 325 332 289 272 306 343 330 351 359 343 7 25 41 109 99 80 95 117 104 121 53 59 48
250 238 218 220 227 225 219 202 205 216 196 197 192 201 189 218 183 207 265 273 240 301 312 310 322 325 312 257 347 321 324 237 294 8 94 1 296 86 103 91 154 144 87 72 78 164 93
254 249 238 228 228 229 233 219 192 192 182 177 183 216 196 194 232 208 215 262 224 295 298 293 301 343 236 24 335 348 335 33 35 40 86 343 24 87 88 120 65 80 76 93 226 162 228
248 246 245 236 226 227 229 228 213 195 185 181 192 227 233 190 209 202 209 175 305 282 279 281 290 178 274 348 90 335 22 45 46 35 13 342 63 95 59 99 44 359 181 163 234 203 137
249 250 244 244 228 225 229 227 230 205 201 187 183 200 218 216 211 217 174 133 310 297 277 266 266 35 188 155 108 341 337 321 175 111 64 71 57 82 32 86 193 184 192 180 183 210 177
250 255 253 238 235 226 229 226 227 217 198 183 180 175 202 217 223 188 86 38 63 33 222 205 178 279 125 106 96 74 7 324 124 25 134 107 87 184 198 172 136 146 152 136 104 172 140
247 247 249 244 240 231 225 216 216 231 197 185 182 172 184 201 208 192 118 245 247 179 181 178 143 107 40 163 118 177 40 153 156 168 112 35 208 197 188 207 128 213 150 133 61 151 141
246 245 243 245 245 231 229 215 215 222 204 184 174 173 173 179 199 175 191 257 185 66 220 219 174 169 190 152 145 172 110 182 170 138 164 152 231 327 124 140 143 81 165 180 155 144 242
243 240 240 238 240 241 229 225 215 208 197 179 173 172 169 160 123 159 222 254 235 56 51 215 211 212 132 155 217 126 51 171 173 178 152 123 330 172 112 139 115 158 215 125 126 102 208
224 236 234 231 227 231 229 226 213 205 193 174 168 167 171 169 154 159 213 172 120 64 42 122 145 115 129 154 134 323 317 123 162 107 108 207 143 143 140 147 77 193 71 109 119 92 57
257 243 224 226 228 222 222 219 207 202 186 174 172 174 176 196 350 213 125 106 70 68 248 153 132 173 132 146 121 133 103 47 134 85 41 85 52 47 120 68 18 145 68 41 42 75 315
341 332 231 226 221 221 219 219 208 195 186 176 174 177 176 156 204 157 107 78 71 179 109 183 176 169 166 154 143 157 157 177 160 123 167 63 14 351 140 76 0 61 75 20 352 0 229
318 333 307 321 230 214 212 213 211 194 188 177 177 178 189 185 189 116 81 69 181 200 174 167 121 114 184 151 196 173 134 191 241 127 121 149 234 174 160 163 178 199 157 159 193 196 248
321 317 304 314 317 213 211 210 202 190 181 174 172 169 182 189 164 90 91 178 202 202 158 135 123 125 220 196 142 143 187 197 201 182 149 134 164 56 55 5 68 205 206 177 101 338 55
317 307 311 305 319 261 203 206 197 186 178 168 162 171 184 158 129 81 110 219 210 147 124 151 162 160 174 181 151 176 180 206 199 182 144 190 103 360 41 248 11 149 279 72 355 155 256
311 314 305 297 291 292 216 199 200 186 178 160 156 175 162 148 101 103 210 221 237 195 152 163 191 153 175 173 173 192 200 274 189 160 133 136 105 285 119 205 180 153 233 20 135 153 176
308 303 306 278 276 284 285 248 193 185 173 156 156 197 167 151 176 183 212 187 263 174 92 180 132 161 164 162 168 211 205 225 141 142 160 181 113 146 209 257 164 163 194 167 138 251 225
310 306 302 300 268 272 250 282 189 184 174 150 165 138 293 176 202 202 222 222 267 181 177 177 211 223 111 156 142 190 175 336 159 148 161 181 223 90 355 354 359 213 212 180 127 91 211
303 303 299 297 285 261 233 255 247 184 176 163 139 150 181 190 208 190 188 210 217 218 166 167 167 100 98 122 167 174 132 16 201 69 114 122 143 171 199 196 139 187 197 189 156 161 163
296 299 296 292 293 277 243 233 241 198 174 162 170 172 182 192 205 166 184 179 198 207 205 180 200 182 155 126 104 122 104 30 10 33 51 124 197 146 323 144 139 174 180 188 207 206 198
298 294 294 286 288 280 255 235 232 247 177 186 169 143 111 186 184 189 195 206 204 201 160 201 170 181 159 137 140 163 129 170 191 80 122 351 184 101 303 348 128 226 200 197 221 254 282
294 293 288 285 282 286 274 243 227 252 178 174 183 109 136 176 181 188 206 191 206 183 193 168 207 120 279 265 82 140 161 198 162 160 175 150 138 102 249 73 73 297 201 183 189 205 205
294 286 284 289 275 282 275 247 206 248 211 142 180 126 133 179 172 200 196 203 202 191 172 160 169 158 191 116 74 60 60 40 143 210 162 144 127 117 168 58 230 249 327 185 195 197 212
302 298 291 285 290 293 272 243 214 229 226 231 183 169 154 180 183 181 198 203 199 193 196 151 171 183 147 103 120 126 99 17 241 235 195 182 136 127 149 207 300 285 199 146 170 252 212
308 303 289 279 272 280 267 271 237 210 233 247 200 173 136 171 212 160 175 150 193 208 93 134 144 153 134 131 140 180 188 168 198 195 201 161 114 134 144 181 214 271 199 166 104 269 216
346 317 322 308 286 269 256 277 262 213 235 236 164 194 122 156 174 164 172 186 155 146 167 137 154 125 104 122 144 170 219 182 187 168 160 174 192 207 210 224 271 228 189 114 162 249 58
355 331 324 318 312 301 265 266 239 194 180 203 85 311 163 138 104 185 175 157 173 189 194 170 112 209 106 180 169 199 162 223 162 165 169 165 166 195 211 214 248 20 1 197 323 6 73
19 14 5 332 297 272 270 233 210 178 128 109 94 335 32 83 78 69 73 53 27 186 176 165 184 158 166 172 194 161 201 194 207 230 181 210 185 175 185 200 53 25 63 24 358 67 21